Regional Weather Roundup
Issued by NWS Northern Indiana

Home | Current Version | Previous Version | Graphics & Text | Print | Product List | Glossary On
Versions: 1 2 3 4 5 6 7 8 9 10 11 12 13 14 15 16 17 18 19 20 21 22 23 24 25 26 27 28 29 30 31 32 33 34 35 36 37 38 39 40 41 42 43 44 45 46 47 48 49 50
000
ASUS43 KIWX 231801
RWRIWX

KIWX WEATHER ROUNDUP
NATIONAL WEATHER SERVICE NORTHERN INDIANA
200 PM EDT SAT SEP 23 2017

NOTE: "FAIR" INDICATES FEW OR NO CLOUDS BELOW 12,000 FEET WITH NO
SIGNIFICANT WEATHER AND/OR OBSTRUCTIONS TO VISIBILITY.

* THESE STATIONS ARE NOT UNDER NWS QUALITY CONTROL. THEY ALSO MAY NOT
  REPORT WEATHER SUCH AS PRECIPITATION OR FOG.

INZ001>027-231900-
NORTHERN INDIANA

CITY           SKY/WX    TMP DP  RH WIND       PRES   REMARKS
GARY*          SUNNY     91  59  33 SE6       30.10F
SOUTH BEND     SUNNY     90  66  45 E3        30.12F
6HR MIN TEMP:  66; 6HR MAX TEMP:  90;

ELKHART*       SUNNY     88  64  45 CALM      30.12F
GOSHEN         SUNNY     90  63  40 VRB3      30.12F
6HR MIN TEMP:  65; 6HR MAX TEMP:  90; 6HR PCP: TRACE;

FORT WAYNE     SUNNY     89  66  46 VRB3      30.13F
6HR MIN TEMP:  65; 6HR MAX TEMP:  89;


$$
INZ028>050-231900-
CENTRAL INDIANA

CITY           SKY/WX    TMP DP  RH WIND       PRES   REMARKS
LAFAYETTE      SUNNY     88  67  49 VRB5      30.09F
6HR MIN TEMP:  65; 6HR MAX TEMP:  89;

KOKOMO*        SUNNY     89  67  47 CALM      30.12F
6HR MIN TEMP:  64; 6HR MAX TEMP:  89;

MUNCIE*        SUNNY     89  64  43 CALM      30.12F
6HR MIN TEMP:  66; 6HR MAX TEMP:  90;

INDIANAPOLIS   MOSUNNY   89  65  44 MISG      30.11F
6HR MIN TEMP:  69; 6HR MAX TEMP:  89;


$$
MIZ043>046-050>051-056>058-064>065-071>073-077>080-231900-
SOUTHWEST LOWER MICHIGAN

CITY           SKY/WX    TMP DP  RH WIND       PRES   REMARKS
BATTLE CREEK   SUNNY     91  58  32 S5        30.14F
6HR MIN TEMP:  66; 6HR MAX TEMP:  92;

BENTON HARBOR  SUNNY     92  63  38 E5        30.10F
6HR MIN TEMP:  67; 6HR MAX TEMP:  92;

COLDWATER*     SUNNY     89  59  35 E5        30.14F
6HR MIN TEMP:  63; 6HR MAX TEMP:  89;

HILLSDALE*     SUNNY     88  59  37 SW5       30.16S
HOLLAND        SUNNY     91  65  41 NW8       30.12F
6HR MIN TEMP:  68; 6HR MAX TEMP:  93;

GRAND RAPIDS   MOSUNNY   93  63  36 CALM      30.12F
6HR MIN TEMP:  68; 6HR MAX TEMP:  94;

KALAMAZOO      SUNNY     93  57  29 VRB5      30.13F
6HR MIN TEMP:  67; 6HR MAX TEMP:  93;

STURGIS*       SUNNY     89  61  39 CALM      30.13F
6HR MIN TEMP:  64; 6HR MAX TEMP:  90;

THREE RIVERS*  FAIR      91  58  32 S3        30.12F
6HR MIN TEMP:  64; 6HR MAX TEMP:  91;


$$
OHZ001>008-015>018-024>025-231900-
NORTHWEST OHIO

CITY           SKY/WX    TMP DP  RH WIND       PRES   REMARKS
DEFIANCE       SUNNY     87  64  46 CALM      30.13F
6HR MIN TEMP:  63; 6HR MAX TEMP:  88;

FINDLAY        SUNNY     90  61  37 CALM      30.13S
6HR MIN TEMP:  63; 6HR MAX TEMP:  90;

TOLEDO EXPRESS SUNNY     89  66  46 CALM      30.13F
6HR MIN TEMP:  62; 6HR MAX TEMP:  91;

TOLEDO METCALF SUNNY     90  64  42 N8        30.15F
6HR MIN TEMP:  64; 6HR MAX TEMP:  90;

LIMA           SUNNY     90  59  35 SE3       30.13F
6HR MIN TEMP:  62; 6HR MAX TEMP:  90;


$$
AND FOR LAKE MICHIGAN COASTAL AND OPEN LAKE BUOY OBSERVATIONS

STATION/POSITION TEMP    WIND        PRES    VSBY  WAVE
                 AIR SEA DIR/SP/G                  HT/PER
                 (F)     (DEG/KT/KT) (MB)    (MI)  (FT/S)
CALUMET HARBOR    81      50/  7/  8 1018.6F
MICHIGAN CITY     78      10/  5/  6   N/A
BURNS HARBOR      78      30/  6/  7 1019.6F
SAINT JOSEPH      80     360/  3/  4 1021.0
SOUTH LAKE BUOY   72 71  140/  4/  4 1019.9          0
4 MI NW BRIDGMAN  79 74  350/  2/  4 1019.0F         0
MICHIGAN CITY     78 76   30/  4/  4   N/A           0

$$
&&



USA.gov is the U.S. government's official web portal to all federal, state and local government web resources and services.